Location: Prairie Dale
(45.6972°N, 104.5033°W)
Time: 07:11:11
(UTC+00:00)

AO-109 - Pass Details

Date: 06 July 2022
Orbit: 469 x 506 km, 60.7° (Epoch: 12 August)

Event Time Altitude Azimuth Distance (km) Brightness Sun altitude
Exits shadow 10:02:00 14° 239° (WSW) 1,399 ? -10.5°
Maximum altitude 10:05:00 57° 316° (NW) 575 ? -10.1°
Drops below altitude 10° 10:08:42 10° 37° (NE) 1,678 ? -9.7°
Sets 10:10:55 0° 41° (NE) 2,570 ? -9.4°
